Location: De Har
(53.3413°N, 6.6858°E)
Time: 20:59:38
(UTC+00:00)

CZ-4C R/B - Pass Details

Date: 22 April 2026
Orbit: 475 x 1502 km, 63.4° (Epoch: 21 May)

Event Time Altitude Azimuth Distance (km) Brightness Sun altitude
Exits shadow 01:21:53 49° 222° (SW) 876 1.9 -20.4°
Maximum altitude 01:23:10 87° 139° (SE) 716 1.7 -20.3°
Drops below altitude 10° 01:28:55 10° 48° (NE) 2,534 5.8 -19.9°
Sets 01:31:48 0° 49° (NE) 3,657 6.9 -19.7°
